This is the latest recevied weather packets stored in our database for station/object KB1QVF. If no packets are shown the sender has not sent any weather packets the latest 10 day(s).
| Time | Temp. | Humidity | Pressure | Rain* | Wind** | Luminosity | Snow |
|---|---|---|---|---|---|---|---|
| 1778086847 | 19.44° C | 65% | 1011.5 hPa | 0 mm | - | 634 W/m² | - |
| 1778086546 | 18.89° C | 68% | 1011.5 hPa | 0 mm | - | 418 W/m² | - |
| 1778086242 | 18.89° C | 67% | 1011.4 hPa | 0 mm | - | 322 W/m² | - |
| 1778085939 | 18.89° C | 67% | 1011.4 hPa | 0 mm | - | 372 W/m² | - |
| 1778085636 | 18.89° C | 67% | 1011.5 hPa | 0 mm | - | 329 W/m² | - |
| 1778085332 | 18.89° C | 68% | 1011.5 hPa | 0 mm | - | 413 W/m² | - |
| 1778085028 | 18.89° C | 68% | 1011.7 hPa | 0 mm | - | 633 W/m² | - |
| 1778084725 | 18.89° C | 67% | 1011.7 hPa | 0 mm | - | 573 W/m² | - |
| 1778084421 | 18.89° C | 67% | 1011.8 hPa | 0 mm | - | 407 W/m² | - |
| 1778084119 | 19.44° C | 65% | 1011.9 hPa | 0 mm | - | 286 W/m² | - |
| 1778083810 | 19.44° C | 65% | 1012 hPa | 0 mm | - | 396 W/m² | - |
| 1778083508 | 20° C | 64% | 1012.1 hPa | 0 mm | - | 374 W/m² | - |
| 1778083205 | 19.44° C | 64% | 1011.8 hPa | 0 mm | - | 380 W/m² | - |
| 1778082903 | 20° C | 64% | 1012 hPa | 0 mm | - | 444 W/m² | - |
| 1778081794 | 20° C | 64% | 1012.3 hPa | 0 mm | - | 392 W/m² | - |
| 1778081491 | 20° C | 64% | 1012.2 hPa | 0 mm | - | 420 W/m² | - |
| 1778081188 | 20° C | 64% | 1012.2 hPa | 0 mm | - | 455 W/m² | - |
| 1778080886 | 19.44° C | 64% | 1012.4 hPa | 0 mm | - | 521 W/m² | - |
| 1778080585 | 20° C | 64% | 1012.4 hPa | 0 mm | - | 433 W/m² | - |
| 1778080281 | 20° C | 64% | 1012.6 hPa | 0 mm | - | 663 W/m² | - |
| 1778079978 | 20° C | 64% | 1012.3 hPa | 0 mm | - | 609 W/m² | - |
| 1778079675 | 20° C | 63% | 1012.4 hPa | 0 mm | - | 554 W/m² | - |
| 1778079372 | 20° C | 65% | 1012.2 hPa | 0 mm | - | 717 W/m² | - |
| 1778079069 | 19.44° C | 66% | 1012.4 hPa | 0 mm | - | 685 W/m² | - |
| 1778078765 | 18.89° C | 67% | 1012.4 hPa | 0 mm | - | 477 W/m² | - |
* Rain latest hour (hover to see other rain measurements)
** Current wind speed in m/s (hover to see current wind gust speed)